Time,TemperatureF,DewpointF,PressureIn,WindDirection,WindDirectionDegrees,WindSpeedMPH,WindSpeedGustMPH,Humidity,HourlyPrecipIn,Conditions,Clouds,dailyrainin,SoftwareType,DateUTC
2013-07-30 07:10:00,56.9,51.8,29.96,North,0,0.0,0.0,83,0.00,,,0.00,WUHU216HW,2013-07-30 14:10:00,
2013-07-30 07:11:00,56.9,51.8,29.96,North,0,0.0,0.0,83,0.00,,,0.00,WUHU216HW,2013-07-30 14:11:00,
2013-07-30 07:13:00,57.1,51.9,29.97,North,0,0.0,0.0,83,0.00,,,0.00,WUHU216HW,2013-07-30 14:13:00,
2013-07-30 07:18:00,57.2,52.1,29.96,North,0,0.0,0.0,83,0.00,,,0.00,WUHU216HW,2013-07-30 14:18:00,
2013-07-30 07:23:00,57.2,52.1,29.97,North,0,0.0,0.0,83,0.00,,,0.00,WUHU216HW,2013-07-30 14:23:00,
2013-07-30 07:28:00,57.6,52.5,29.97,North,0,0.0,0.0,83,0.00,,,0.00,WUHU216HW,2013-07-30 14:28:00,
2013-07-30 07:33:00,57.8,52.7,29.97,North,0,0.0,0.0,83,0.00,,,0.00,WUHU216HW,2013-07-30 14:33:00,
2013-07-30 07:38:00,58.0,52.8,29.97,North,0,0.0,0.0,83,0.00,,,0.00,WUHU216HW,2013-07-30 14:38:00,
2013-07-30 07:43:00,58.1,53.0,29.97,North,0,0.0,0.0,83,0.00,,,0.00,WUHU216HW,2013-07-30 14:43:00,
2013-07-30 07:48:00,58.3,53.2,29.98,North,0,0.0,0.0,83,0.00,,,0.00,WUHU216HW,2013-07-30 14:48:00,
2013-07-30 07:53:00,58.5,53.0,29.98,North,0,0.0,0.0,82,0.00,,,0.00,WUHU216HW,2013-07-30 14:53:00,
2013-07-30 07:58:00,58.7,53.2,29.98,North,0,0.0,0.0,82,0.00,,,0.00,WUHU216HW,2013-07-30 14:58:00,
2013-07-30 08:04:00,59.0,53.6,29.98,North,0,0.0,0.0,82,0.00,,,0.00,WUHU216HW,2013-07-30 15:04:00,
2013-07-30 08:09:00,59.2,53.5,29.98,North,0,0.0,0.0,81,0.00,,,0.00,WUHU216HW,2013-07-30 15:09:00,
2013-07-30 08:14:00,59.6,53.8,29.98,North,0,0.0,0.0,81,0.00,,,0.00,WUHU216HW,2013-07-30 15:14:00,
2013-07-30 08:19:00,59.9,54.2,29.98,North,0,0.0,0.0,81,0.00,,,0.00,WUHU216HW,2013-07-30 15:19:00,
2013-07-30 08:24:00,60.3,54.6,29.98,North,0,0.0,0.0,81,0.00,,,0.00,WUHU216HW,2013-07-30 15:24:00,
2013-07-30 08:29:00,60.8,54.7,29.99,North,0,0.0,0.0,80,0.00,,,0.00,WUHU216HW,2013-07-30 15:29:00,
2013-07-30 08:34:00,61.2,55.1,29.98,North,0,0.0,0.0,80,0.00,,,0.00,WUHU216HW,2013-07-30 15:34:00,
2013-07-30 08:39:00,61.6,55.0,29.99,North,0,0.0,0.0,79,0.00,,,0.00,WUHU216HW,2013-07-30 15:39:00,
2013-07-30 08:44:00,61.9,55.4,29.99,North,0,0.0,0.0,79,0.00,,,0.00,WUHU216HW,2013-07-30 15:44:00,
2013-07-30 08:49:00,62.3,55.6,29.99,North,0,0.0,0.0,79,0.00,,,0.00,WUHU216HW,2013-07-30 15:49:00,
2013-07-30 08:54:00,62.8,55.8,29.99,North,0,0.0,0.0,78,0.00,,,0.00,WUHU216HW,2013-07-30 15:54:00,
2013-07-30 08:59:00,63.2,55.8,29.99,North,0,0.0,0.0,77,0.00,,,0.00,WUHU216HW,2013-07-30 15:59:00,
2013-07-30 09:04:00,63.5,56.5,29.99,North,0,0.0,0.0,78,0.00,,,0.00,WUHU216HW,2013-07-30 16:04:00,
2013-07-30 09:10:00,63.9,56.5,29.99,North,0,0.0,0.0,77,0.00,,,0.00,WUHU216HW,2013-07-30 16:10:00,
2013-07-30 09:15:00,64.4,57.1,29.99,North,0,0.0,0.0,77,0.00,,,0.00,WUHU216HW,2013-07-30 16:15:00,
2013-07-30 09:20:00,64.8,57.1,29.99,North,0,0.0,0.0,76,0.00,,,0.00,WUHU216HW,2013-07-30 16:20:00,
2013-07-30 09:25:00,65.2,57.1,29.99,North,0,0.0,0.0,75,0.00,,,0.00,WUHU216HW,2013-07-30 16:25:00,
2013-07-30 09:30:00,65.7,57.5,29.99,North,0,0.0,0.0,75,0.00,,,0.00,WUHU216HW,2013-07-30 16:30:00,
2013-07-30 09:35:00,66.2,57.7,29.99,North,0,0.0,0.0,74,0.00,,,0.00,WUHU216HW,2013-07-30 16:35:00,
2013-07-30 09:40:00,66.6,57.7,29.99,North,0,0.0,0.0,73,0.00,,,0.00,WUHU216HW,2013-07-30 16:40:00,
2013-07-30 09:45:00,67.0,58.1,29.99,North,0,0.0,0.0,73,0.00,,,0.00,WUHU216HW,2013-07-30 16:45:00,
2013-07-30 09:50:00,67.3,58.0,29.98,North,0,0.0,0.0,72,0.00,,,0.00,WUHU216HW,2013-07-30 16:50:00,
2013-07-30 09:55:00,67.7,58.3,29.99,North,0,0.0,0.0,72,0.00,,,0.00,WUHU216HW,2013-07-30 16:55:00,
2013-07-30 10:00:00,68.2,58.5,29.98,North,0,0.0,0.0,71,0.00,,,0.00,WUHU216HW,2013-07-30 17:00:00,
2013-07-30 10:05:00,68.8,58.6,29.98,North,0,0.0,0.0,70,0.00,,,0.00,WUHU216HW,2013-07-30 17:05:00,
2013-07-30 10:10:00,69.1,58.5,29.99,North,0,0.0,0.0,69,0.00,,,0.00,WUHU216HW,2013-07-30 17:10:00,
2013-07-30 10:16:00,69.5,58.9,29.99,North,0,0.0,0.0,69,0.00,,,0.00,WUHU216HW,2013-07-30 17:16:00,
2013-07-30 10:21:00,69.8,58.8,29.99,North,0,0.0,0.0,68,0.00,,,0.00,WUHU216HW,2013-07-30 17:21:00,
2013-07-30 10:26:00,70.4,58.9,29.99,North,0,0.0,0.0,67,0.00,,,0.00,WUHU216HW,2013-07-30 17:26:00,
2013-07-30 10:31:00,70.7,59.7,29.99,North,0,0.0,0.0,68,0.00,,,0.00,WUHU216HW,2013-07-30 17:31:00,
2013-07-30 10:36:00,70.9,59.0,29.99,North,0,0.0,0.0,66,0.00,,,0.00,WUHU216HW,2013-07-30 17:36:00,
2013-07-30 10:41:00,71.5,59.5,29.99,North,0,0.0,0.0,66,0.00,,,0.00,WUHU216HW,2013-07-30 17:41:00,
2013-07-30 10:46:00,71.8,59.9,29.99,North,0,0.0,0.0,66,0.00,,,0.00,WUHU216HW,2013-07-30 17:46:00,
2013-07-30 10:51:00,72.2,60.2,29.99,North,0,0.0,0.0,66,0.00,,,0.00,WUHU216HW,2013-07-30 17:51:00,
2013-07-30 10:56:00,72.7,60.2,29.99,North,0,0.0,0.0,65,0.00,,,0.00,WUHU216HW,2013-07-30 17:56:00,
2013-07-30 11:01:00,73.1,60.6,29.99,North,0,0.0,0.0,65,0.00,,,0.00,WUHU216HW,2013-07-30 18:01:00,
2013-07-30 11:06:00,73.4,60.5,29.99,North,0,0.0,0.0,64,0.00,,,0.00,WUHU216HW,2013-07-30 18:06:00,
2013-07-30 11:12:00,73.8,60.9,29.99,North,0,0.0,0.0,64,0.00,,,0.00,WUHU216HW,2013-07-30 18:12:00,
2013-07-30 11:17:00,74.3,60.9,29.99,North,0,0.0,0.0,63,0.00,,,0.00,WUHU216HW,2013-07-30 18:17:00,
2013-07-30 11:22:00,74.9,61.0,29.99,North,0,0.0,0.0,62,0.00,,,0.00,WUHU216HW,2013-07-30 18:22:00,
2013-07-30 11:27:00,75.1,61.2,29.99,North,0,0.0,0.0,62,0.00,,,0.00,WUHU216HW,2013-07-30 18:27:00,
2013-07-30 11:32:00,75.2,60.9,29.99,North,0,0.0,0.0,61,0.00,,,0.00,WUHU216HW,2013-07-30 18:32:00,
2013-07-30 11:37:00,75.6,61.2,29.99,North,0,0.0,0.0,61,0.00,,,0.00,WUHU216HW,2013-07-30 18:37:00,
2013-07-30 11:42:00,76.1,61.3,29.99,North,0,0.0,0.0,60,0.00,,,0.00,WUHU216HW,2013-07-30 18:42:00,
2013-07-30 11:47:00,76.3,60.9,29.98,North,0,0.0,0.0,59,0.00,,,0.00,WUHU216HW,2013-07-30 18:47:00,
2013-07-30 11:52:00,76.5,61.1,29.98,North,0,0.0,0.0,59,0.00,,,0.00,WUHU216HW,2013-07-30 18:52:00,
2013-07-30 11:57:00,76.9,60.4,29.98,North,0,0.0,0.0,57,0.00,,,0.00,WUHU216HW,2013-07-30 18:57:00,
2013-07-30 12:02:00,77.6,61.1,29.98,North,0,0.0,0.0,57,0.00,,,0.00,WUHU216HW,2013-07-30 19:02:00,
2013-07-30 12:07:00,77.8,61.3,29.98,North,0,0.0,0.0,57,0.00,,,0.00,WUHU216HW,2013-07-30 19:07:00,
2013-07-30 12:12:00,78.1,61.7,29.98,North,0,0.0,0.0,57,0.00,,,0.00,WUHU216HW,2013-07-30 19:12:00,
2013-07-30 12:17:00,78.3,60.8,29.98,North,0,0.0,0.0,55,0.00,,,0.00,WUHU216HW,2013-07-30 19:17:00,
2013-07-30 12:22:00,78.8,61.8,29.98,North,0,0.0,0.0,56,0.00,,,0.00,WUHU216HW,2013-07-30 19:22:00,
2013-07-30 12:28:00,79.2,61.7,29.98,North,0,0.0,0.0,55,0.00,,,0.00,WUHU216HW,2013-07-30 19:28:00,
2013-07-30 12:33:00,79.6,61.9,29.98,North,0,0.0,0.0,55,0.00,,,0.00,WUHU216HW,2013-07-30 19:33:00,
2013-07-30 12:38:00,80.1,62.5,29.97,North,0,0.0,0.0,55,0.00,,,0.00,WUHU216HW,2013-07-30 19:38:00,
2013-07-30 12:43:00,80.6,62.4,29.97,North,0,0.0,0.0,54,0.00,,,0.00,WUHU216HW,2013-07-30 19:43:00,
2013-07-30 12:48:00,81.4,62.6,29.97,North,0,0.0,0.0,53,0.00,,,0.00,WUHU216HW,2013-07-30 19:48:00,
2013-07-30 12:53:00,81.7,62.8,29.97,North,0,0.0,0.0,53,0.00,,,0.00,WUHU216HW,2013-07-30 19:53:00,
2013-07-30 12:58:00,82.3,62.8,29.97,North,0,0.0,0.0,52,0.00,,,0.00,WUHU216HW,2013-07-30 19:58:00,
2013-07-30 13:03:00,82.4,62.5,29.97,North,0,0.0,0.0,51,0.00,,,0.00,WUHU216HW,2013-07-30 20:03:00,
2013-07-30 13:08:00,82.6,63.2,29.96,North,0,0.0,0.0,52,0.00,,,0.00,WUHU216HW,2013-07-30 20:08:00,
2013-07-30 13:13:00,83.2,63.2,29.96,North,0,0.0,0.0,51,0.00,,,0.00,WUHU216HW,2013-07-30 20:13:00,
2013-07-30 13:18:00,83.9,63.4,29.96,North,0,0.0,0.0,50,0.00,,,0.00,WUHU216HW,2013-07-30 20:18:00,
2013-07-30 13:23:00,84.4,63.3,29.96,North,0,0.0,0.0,49,0.00,,,0.00,WUHU216HW,2013-07-30 20:23:00,
2013-07-30 13:28:00,84.8,63.5,29.95,North,0,0.0,0.0,49,0.00,,,0.00,WUHU216HW,2013-07-30 20:28:00,
2013-07-30 13:34:00,85.3,63.5,29.95,North,0,0.0,0.0,48,0.00,,,0.00,WUHU216HW,2013-07-30 20:34:00,
2013-07-30 13:38:00,85.9,64.5,29.95,North,0,0.0,0.0,49,0.00,,,0.00,WUHU216HW,2013-07-30 20:38:00,
2013-07-30 13:44:00,86.4,64.5,29.95,North,0,0.0,0.0,48,0.00,,,0.00,WUHU216HW,2013-07-30 20:44:00,
2013-07-30 13:49:00,86.6,63.9,29.95,North,0,0.0,0.0,47,0.00,,,0.00,WUHU216HW,2013-07-30 20:49:00,
2013-07-30 13:54:00,87.1,64.5,29.95,North,0,0.0,0.0,47,0.00,,,0.00,WUHU216HW,2013-07-30 20:54:00,
2013-07-30 13:59:00,87.7,64.9,29.95,North,0,0.0,0.0,47,0.00,,,0.00,WUHU216HW,2013-07-30 20:59:00,
2013-07-30 14:04:00,88.2,64.7,29.95,North,0,0.0,0.0,46,0.00,,,0.00,WUHU216HW,2013-07-30 21:04:00,
2013-07-30 14:09:00,88.7,65.3,29.95,North,0,0.0,0.0,46,0.00,,,0.00,WUHU216HW,2013-07-30 21:09:00,
2013-07-30 14:14:00,89.1,64.3,29.95,North,0,0.0,0.0,44,0.00,,,0.00,WUHU216HW,2013-07-30 21:14:00,
2013-07-30 14:19:00,89.3,64.4,29.95,North,0,0.0,0.0,44,0.00,,,0.00,WUHU216HW,2013-07-30 21:19:00,
2013-07-30 14:24:00,89.6,64.7,29.95,North,0,0.0,0.0,44,0.00,,,0.00,WUHU216HW,2013-07-30 21:24:00,
2013-07-30 14:29:00,90.0,64.4,29.94,North,0,0.0,0.0,43,0.00,,,0.00,WUHU216HW,2013-07-30 21:29:00,
2013-07-30 14:34:00,90.4,64.7,29.94,North,0,0.0,0.0,43,0.00,,,0.00,WUHU216HW,2013-07-30 21:34:00,
2013-07-30 14:39:00,90.7,64.4,29.94,North,0,0.0,0.0,42,0.00,,,0.00,WUHU216HW,2013-07-30 21:39:00,
2013-07-30 14:44:00,91.1,64.7,29.94,North,0,0.0,0.0,42,0.00,,,0.00,WUHU216HW,2013-07-30 21:44:00,
2013-07-30 14:49:00,91.4,65.0,29.93,North,0,0.0,0.0,42,0.00,,,0.00,WUHU216HW,2013-07-30 21:49:00,
2013-07-30 14:54:00,91.8,64.1,29.93,North,0,0.0,0.0,40,0.00,,,0.00,WUHU216HW,2013-07-30 21:54:00,
2013-07-30 15:00:00,92.0,64.9,29.93,North,0,0.0,0.0,41,0.00,,,0.00,WUHU216HW,2013-07-30 22:00:00,
2013-07-30 15:05:00,92.5,64.7,29.93,North,0,0.0,0.0,40,0.00,,,0.00,WUHU216HW,2013-07-30 22:05:00,
2013-07-30 15:10:00,92.9,65.0,29.93,North,0,0.0,0.0,40,0.00,,,0.00,WUHU216HW,2013-07-30 22:10:00,
2013-07-30 15:15:00,93.1,64.4,29.93,North,0,0.0,0.0,39,0.00,,,0.00,WUHU216HW,2013-07-30 22:15:00,
2013-07-30 15:20:00,93.2,64.5,29.93,North,0,0.0,0.0,39,0.00,,,0.00,WUHU216HW,2013-07-30 22:20:00,
2013-07-30 15:25:00,93.6,64.9,29.92,North,0,0.0,0.0,39,0.00,,,0.00,WUHU216HW,2013-07-30 22:25:00,
2013-07-30 15:30:00,94.0,64.4,29.92,North,0,0.0,0.0,38,0.00,,,0.00,WUHU216HW,2013-07-30 22:30:00,
2013-07-30 15:35:00,94.1,64.5,29.92,North,0,0.0,0.0,38,0.00,,,0.00,WUHU216HW,2013-07-30 22:35:00,
2013-07-30 15:40:00,94.3,64.7,29.92,North,0,0.0,0.0,38,0.00,,,0.00,WUHU216HW,2013-07-30 22:40:00,
2013-07-30 15:45:00,94.1,62.1,29.92,North,0,0.0,0.0,35,0.00,,,0.00,WUHU216HW,2013-07-30 22:45:00,
2013-07-30 15:50:00,94.3,63.1,29.91,North,0,0.0,0.0,36,0.00,,,0.00,WUHU216HW,2013-07-30 22:50:00,
2013-07-30 15:55:00,94.1,62.1,29.91,North,0,0.0,0.0,35,0.00,,,0.00,WUHU216HW,2013-07-30 22:55:00,
2013-07-30 16:00:00,94.5,62.5,29.91,North,0,0.0,0.0,35,0.00,,,0.00,WUHU216HW,2013-07-30 23:00:00,
2013-07-30 16:05:00,94.7,61.7,29.91,North,0,0.0,0.0,34,0.00,,,0.00,WUHU216HW,2013-07-30 23:05:00,
2013-07-30 16:10:00,94.7,62.6,29.91,North,0,0.0,0.0,35,0.00,,,0.00,WUHU216HW,2013-07-30 23:10:00,
2013-07-30 16:15:00,94.7,61.7,29.91,North,0,0.0,0.0,34,0.00,,,0.00,WUHU216HW,2013-07-30 23:15:00,
2013-07-30 16:21:00,94.9,61.1,29.90,North,0,0.0,0.0,33,0.00,,,0.00,WUHU216HW,2013-07-30 23:21:00,
2013-07-30 16:26:00,95.0,62.1,29.90,North,0,0.0,0.0,34,0.00,,,0.00,WUHU216HW,2013-07-30 23:26:00,
2013-07-30 16:31:00,95.0,61.3,29.90,North,0,0.0,0.0,33,0.00,,,0.00,WUHU216HW,2013-07-30 23:31:00,
2013-07-30 16:36:00,95.0,59.7,29.90,North,0,0.0,0.0,31,0.00,,,0.00,WUHU216HW,2013-07-30 23:36:00,
2013-07-30 16:41:00,94.9,61.1,29.90,North,0,0.0,0.0,33,0.00,,,0.00,WUHU216HW,2013-07-30 23:41:00,
2013-07-30 16:46:00,94.3,60.7,29.90,North,0,0.0,0.0,33,0.00,,,0.00,WUHU216HW,2013-07-30 23:46:00,
2013-07-30 16:51:00,94.0,60.3,29.90,North,0,0.0,0.0,33,0.00,,,0.00,WUHU216HW,2013-07-30 23:51:00,
2013-07-30 16:56:00,93.8,60.1,29.90,North,0,0.0,0.0,33,0.00,,,0.00,WUHU216HW,2013-07-30 23:56:00,
2013-07-30 17:01:00,93.8,59.3,29.89,North,0,0.0,0.0,32,0.00,,,0.00,WUHU216HW,2013-07-31 00:01:00,
2013-07-30 17:06:00,93.6,57.6,29.89,North,0,0.0,0.0,30,0.00,,,0.00,WUHU216HW,2013-07-31 00:06:00,
2013-07-30 17:11:00,93.2,57.2,29.89,North,0,0.0,0.0,30,0.00,,,0.00,WUHU216HW,2013-07-31 00:11:00,
2013-07-30 17:16:00,92.9,57.8,29.89,North,0,0.0,0.0,31,0.00,,,0.00,WUHU216HW,2013-07-31 00:16:00,
2013-07-30 17:21:00,92.7,56.8,29.89,North,0,0.0,0.0,30,0.00,,,0.00,WUHU216HW,2013-07-31 00:21:00,
2013-07-30 17:27:00,92.5,56.7,29.89,North,0,0.0,0.0,30,0.00,,,0.00,WUHU216HW,2013-07-31 00:27:00,
2013-07-30 17:32:00,92.5,53.4,29.89,North,0,0.0,0.0,27,0.00,,,0.00,WUHU216HW,2013-07-31 00:32:00,
2013-07-30 17:37:00,92.2,53.1,29.89,North,0,0.0,0.0,27,0.00,,,0.00,WUHU216HW,2013-07-31 00:37:00,
2013-07-30 17:42:00,91.8,49.5,29.88,North,0,0.0,0.0,24,0.00,,,0.00,WUHU216HW,2013-07-31 00:42:00,
2013-07-30 17:47:00,91.4,49.2,29.88,North,0,0.0,0.0,24,0.00,,,0.00,WUHU216HW,2013-07-31 00:47:00,
2013-07-30 17:52:00,90.9,54.2,29.88,North,0,0.0,0.0,29,0.00,,,0.00,WUHU216HW,2013-07-31 00:52:00,
2013-07-30 17:57:00,90.4,53.7,29.88,North,0,0.0,0.0,29,0.00,,,0.00,WUHU216HW,2013-07-31 00:57:00,
2013-07-30 18:02:00,90.4,54.8,29.88,North,0,0.0,0.0,30,0.00,,,0.00,WUHU216HW,2013-07-31 01:02:00,
2013-07-30 18:07:00,90.2,55.4,29.88,North,0,0.0,0.0,31,0.00,,,0.00,WUHU216HW,2013-07-31 01:07:00,
2013-07-30 18:12:00,89.6,55.8,29.88,North,0,0.0,0.0,32,0.00,,,0.00,WUHU216HW,2013-07-31 01:12:00,
2013-07-30 18:17:00,89.3,56.3,29.88,North,0,0.0,0.0,33,0.00,,,0.00,WUHU216HW,2013-07-31 01:17:00,
2013-07-30 18:22:00,88.9,55.9,29.88,North,0,0.0,0.0,33,0.00,,,0.00,WUHU216HW,2013-07-31 01:22:00,
2013-07-30 18:28:00,88.7,56.6,29.88,North,0,0.0,0.0,34,0.00,,,0.00,WUHU216HW,2013-07-31 01:28:00,
2013-07-30 18:33:00,88.2,56.9,29.88,North,0,0.0,0.0,35,0.00,,,0.00,WUHU216HW,2013-07-31 01:33:00,
2013-07-30 18:38:00,87.7,54.8,29.88,North,0,0.0,0.0,33,0.00,,,0.00,WUHU216HW,2013-07-31 01:38:00,
2013-07-30 18:43:00,87.1,55.2,29.88,North,0,0.0,0.0,34,0.00,,,0.00,WUHU216HW,2013-07-31 01:43:00,
2013-07-30 18:48:00,86.4,54.6,29.88,North,0,0.0,0.0,34,0.00,,,0.00,WUHU216HW,2013-07-31 01:48:00,
2013-07-30 18:53:00,85.7,54.7,29.88,North,0,0.0,0.0,35,0.00,,,0.00,WUHU216HW,2013-07-31 01:53:00,
2013-07-30 18:58:00,85.1,55.1,29.88,North,0,0.0,0.0,36,0.00,,,0.00,WUHU216HW,2013-07-31 01:58:00,
2013-07-30 19:03:00,84.6,55.4,29.88,North,0,0.0,0.0,37,0.00,,,0.00,WUHU216HW,2013-07-31 02:03:00,
2013-07-30 19:08:00,84.2,55.1,29.88,North,0,0.0,0.0,37,0.00,,,0.00,WUHU216HW,2013-07-31 02:08:00,
2013-07-30 19:13:00,83.9,55.5,29.88,North,0,0.0,0.0,38,0.00,,,0.00,WUHU216HW,2013-07-31 02:13:00,
2013-07-30 19:18:00,83.7,56.2,29.88,North,0,0.0,0.0,39,0.00,,,0.00,WUHU216HW,2013-07-31 02:18:00,
2013-07-30 19:23:00,83.2,55.6,29.88,North,0,0.0,0.0,39,0.00,,,0.00,WUHU216HW,2013-07-31 02:23:00,
2013-07-30 19:28:00,82.8,55.4,29.88,North,0,0.0,0.0,39,0.00,,,0.00,WUHU216HW,2013-07-31 02:28:00,
2013-07-30 19:33:00,82.4,55.8,29.88,North,0,0.0,0.0,40,0.00,,,0.00,WUHU216HW,2013-07-31 02:33:00,
2013-07-30 19:38:00,82.1,55.4,29.88,North,0,0.0,0.0,40,0.00,,,0.00,WUHU216HW,2013-07-31 02:38:00,
2013-07-30 19:43:00,81.5,55.6,29.88,North,0,0.0,0.0,41,0.00,,,0.00,WUHU216HW,2013-07-31 02:43:00,
2013-07-30 19:48:00,80.6,55.5,29.88,North,0,0.0,0.0,42,0.00,,,0.00,WUHU216HW,2013-07-31 02:48:00,
2013-07-30 19:53:00,80.1,55.5,29.88,North,0,0.0,0.0,43,0.00,,,0.00,WUHU216HW,2013-07-31 02:53:00,
2013-07-30 19:58:00,79.4,55.5,29.88,North,0,0.0,0.0,44,0.00,,,0.00,WUHU216HW,2013-07-31 02:58:00,
2013-07-30 20:04:00,78.8,55.6,29.89,North,0,0.0,0.0,45,0.00,,,0.00,WUHU216HW,2013-07-31 03:04:00,
2013-07-30 20:09:00,78.5,55.3,29.89,North,0,0.0,0.0,45,0.00,,,0.00,WUHU216HW,2013-07-31 03:09:00,
2013-07-30 20:14:00,77.9,55.5,29.89,North,0,0.0,0.0,46,0.00,,,0.00,WUHU216HW,2013-07-31 03:14:00,
2013-07-30 20:19:00,77.4,55.5,29.89,North,0,0.0,0.0,47,0.00,,,0.00,WUHU216HW,2013-07-31 03:19:00,
2013-07-30 20:24:00,76.7,54.9,29.90,North,0,0.0,0.0,47,0.00,,,0.00,WUHU216HW,2013-07-31 03:24:00,
2013-07-30 20:29:00,76.1,55.0,29.89,North,0,0.0,0.0,48,0.00,,,0.00,WUHU216HW,2013-07-31 03:29:00,
2013-07-30 20:34:00,75.4,55.0,29.90,North,0,0.0,0.0,49,0.00,,,0.00,WUHU216HW,2013-07-31 03:34:00,
2013-07-30 20:39:00,74.9,55.1,29.90,North,0,0.0,0.0,50,0.00,,,0.00,WUHU216HW,2013-07-31 03:39:00,
2013-07-30 20:44:00,74.3,54.5,29.90,North,0,0.0,0.0,50,0.00,,,0.00,WUHU216HW,2013-07-31 03:44:00,
2013-07-30 20:49:00,73.6,54.4,29.90,North,0,0.0,0.0,51,0.00,,,0.00,WUHU216HW,2013-07-31 03:49:00,
2013-07-30 20:54:00,73.3,54.0,29.90,North,0,0.0,0.0,51,0.00,,,0.00,WUHU216HW,2013-07-31 03:54:00,
2013-07-30 20:59:00,72.7,54.6,29.90,North,0,0.0,0.0,53,0.00,,,0.00,WUHU216HW,2013-07-31 03:59:00,
2013-07-30 21:01:00,72.5,53.8,29.90,North,0,0.0,0.0,52,0.00,,,0.00,WUHU216HW,2013-07-31 04:01:00,
2013-07-30 21:02:00,72.5,54.4,29.90,North,0,0.0,0.0,53,0.00,,,0.00,WUHU216HW,2013-07-31 04:02:00,
2013-07-30 21:07:00,72.0,53.8,29.90,North,0,0.0,0.0,53,0.00,,,0.00,WUHU216HW,2013-07-31 04:07:00,
2013-07-30 21:12:00,71.6,54.0,29.91,North,0,0.0,0.0,54,0.00,,,0.00,WUHU216HW,2013-07-31 04:12:00,
2013-07-30 21:17:00,71.3,53.7,29.91,North,0,0.0,0.0,54,0.00,,,0.00,WUHU216HW,2013-07-31 04:17:00,
2013-07-30 21:22:00,70.9,53.4,29.91,North,0,0.0,0.0,54,0.00,,,0.00,WUHU216HW,2013-07-31 04:22:00,
2013-07-30 21:27:00,70.7,53.7,29.91,North,0,0.0,0.0,55,0.00,,,0.00,WUHU216HW,2013-07-31 04:27:00,
2013-07-30 21:32:00,70.4,53.4,29.91,North,0,0.0,0.0,55,0.00,,,0.00,WUHU216HW,2013-07-31 04:32:00,
2013-07-30 21:37:00,69.8,52.9,29.92,North,0,0.0,0.0,55,0.00,,,0.00,WUHU216HW,2013-07-31 04:37:00,
2013-07-30 21:42:00,69.5,52.6,29.91,North,0,0.0,0.0,55,0.00,,,0.00,WUHU216HW,2013-07-31 04:42:00,
2013-07-30 21:48:00,69.3,52.4,29.91,North,0,0.0,0.0,55,0.00,,,0.00,WUHU216HW,2013-07-31 04:48:00,
2013-07-30 21:53:00,68.9,52.6,29.92,North,0,0.0,0.0,56,0.00,,,0.00,WUHU216HW,2013-07-31 04:53:00,
2013-07-30 21:58:00,68.8,52.4,29.91,North,0,0.0,0.0,56,0.00,,,0.00,WUHU216HW,2013-07-31 04:58:00,
2013-07-30 22:03:00,68.4,52.6,29.92,North,0,0.0,0.0,57,0.00,,,0.00,WUHU216HW,2013-07-31 05:03:00,
2013-07-30 22:08:00,68.2,52.8,29.92,North,0,0.0,0.0,58,0.00,,,0.00,WUHU216HW,2013-07-31 05:08:00,
2013-07-30 22:13:00,67.9,52.5,29.92,North,0,0.0,0.0,58,0.00,,,0.00,WUHU216HW,2013-07-31 05:13:00,
2013-07-30 22:18:00,67.7,52.4,29.92,North,0,0.0,0.0,58,0.00,,,0.00,WUHU216HW,2013-07-31 05:18:00,
2013-07-30 22:23:00,67.3,52.5,29.92,North,0,0.0,0.0,59,0.00,,,0.00,WUHU216HW,2013-07-31 05:23:00,
2013-07-30 22:28:00,67.1,52.4,29.92,North,0,0.0,0.0,59,0.00,,,0.00,WUHU216HW,2013-07-31 05:28:00,
2013-07-30 22:33:00,67.0,52.7,29.93,North,0,0.0,0.0,60,0.00,,,0.00,WUHU216HW,2013-07-31 05:33:00,
2013-07-30 22:38:00,66.6,52.4,29.93,North,0,0.0,0.0,60,0.00,,,0.00,WUHU216HW,2013-07-31 05:38:00,
2013-07-30 22:43:00,66.6,52.4,29.93,North,0,0.0,0.0,60,0.00,,,0.00,WUHU216HW,2013-07-31 05:43:00,
2013-07-30 22:48:00,66.4,52.2,29.93,North,0,0.0,0.0,60,0.00,,,0.00,WUHU216HW,2013-07-31 05:48:00,
2013-07-30 22:53:00,66.2,52.5,29.93,North,0,0.0,0.0,61,0.00,,,0.00,WUHU216HW,2013-07-31 05:53:00,
2013-07-30 22:58:00,66.1,52.3,29.93,North,0,0.0,0.0,61,0.00,,,0.00,WUHU216HW,2013-07-31 05:58:00,
2013-07-30 23:03:00,65.9,52.1,29.93,North,0,0.0,0.0,61,0.00,,,0.00,WUHU216HW,2013-07-31 06:03:00,
2013-07-30 23:08:00,65.7,52.3,29.93,North,0,0.0,0.0,62,0.00,,,0.00,WUHU216HW,2013-07-31 06:08:00,
2013-07-30 23:13:00,65.5,52.1,29.93,North,0,0.0,0.0,62,0.00,,,0.00,WUHU216HW,2013-07-31 06:13:00,
2013-07-30 23:19:00,65.3,51.9,29.93,North,0,0.0,0.0,62,0.00,,,0.00,WUHU216HW,2013-07-31 06:19:00,
2013-07-30 23:24:00,65.2,52.2,29.93,North,0,0.0,0.0,63,0.00,,,0.00,WUHU216HW,2013-07-31 06:24:00,
2013-07-30 23:29:00,65.0,52.0,29.93,North,0,0.0,0.0,63,0.00,,,0.00,WUHU216HW,2013-07-31 06:29:00,
2013-07-30 23:34:00,64.8,51.8,29.93,North,0,0.0,0.0,63,0.00,,,0.00,WUHU216HW,2013-07-31 06:34:00,
2013-07-30 23:39:00,64.4,51.9,29.93,North,0,0.0,0.0,64,0.00,,,0.00,WUHU216HW,2013-07-31 06:39:00,
2013-07-30 23:44:00,64.3,52.2,29.93,North,0,0.0,0.0,65,0.00,,,0.00,WUHU216HW,2013-07-31 06:44:00,
2013-07-30 23:49:00,64.1,52.0,29.93,North,0,0.0,0.0,65,0.00,,,0.00,WUHU216HW,2013-07-31 06:49:00,
2013-07-30 23:54:00,63.9,51.8,29.93,North,0,0.0,0.0,65,0.00,,,0.00,WUHU216HW,2013-07-31 06:54:00,
2013-07-30 23:59:00,63.7,51.7,29.93,North,0,0.0,0.0,65,0.00,,,0.00,WUHU216HW,2013-07-31 06:59:00,